Date,TemperatureHighF,TemperatureAvgF,TemperatureLowF,DewpointHighF,DewpointAvgF,DewpointLowF,HumidityHigh,HumidityAvg,HumidityLow,PressureMaxIn,PressureMinIn,WindSpeedMaxMPH,WindSpeedAvgMPH,GustSpeedMaxMPH,PrecipitationSumIn
2013-4-1,67.0,56.9,51.0,49.0,47.0,44.0,83,71,46,30.16,30.06,6,3,0,0.00
2013-4-2,76.0,61.0,51.0,51.0,47.9,45.0,83,65,34,30.08,29.95,6,2,0,0.00
2013-4-3,87.0,63.8,48.0,52.0,47.5,43.0,86,61,23,30.07,29.96,7,2,0,0.00
2013-4-4,81.0,62.5,52.0,54.0,50.0,47.0,88,67,34,30.09,29.97,6,2,0,0.00
2013-4-5,74.0,60.1,55.0,53.0,51.0,49.0,85,73,47,30.07,29.98,6,2,0,0.00
2013-4-6,76.0,61.2,54.0,53.0,50.2,47.0,84,69,43,30.06,29.93,7,3,0,0.00
2013-4-7,77.0,60.0,48.0,54.0,49.1,44.0,87,70,40,29.96,29.80,6,2,0,0.00
2013-4-8,73.0,57.7,52.0,49.0,43.0,29.0,85,62,21,29.80,29.59,10,2,0,0.00
2013-4-9,77.0,59.6,44.0,42.0,33.2,21.0,79,44,13,29.99,29.80,6,2,0,0.00
2013-4-10,85.0,64.5,48.0,34.0,28.7,23.0,53,30,11,30.08,29.96,8,2,0,0.00
2013-4-11,84.0,61.2,47.0,48.0,37.8,29.0,80,46,16,29.98,29.75,8,2,0,0.00
2013-4-12,82.0,61.8,52.0,52.0,48.8,47.0,84,66,32,29.86,29.73,8,2,0,0.00
2013-4-13,71.0,58.6,52.0,54.0,50.1,47.0,85,74,53,29.90,29.80,6,2,0,0.00
2013-4-14,64.0,54.7,50.0,49.0,47.0,45.0,87,76,55,29.88,29.80,5,2,0,0.00
2013-4-15,59.0,53.0,50.0,53.0,47.7,44.0,90,82,67,29.90,29.82,4,3,0,0.00
2013-4-16,67.0,53.6,46.0,45.0,39.6,29.0,82,61,35,29.96,29.86,5,2,0,0.00
2013-4-17,73.0,57.1,42.0,35.0,26.2,17.0,64,35,12,30.12,29.96,7,2,0,0.00
2013-4-18,81.0,61.9,44.0,27.0,22.0,14.0,49,26,9,30.19,30.09,7,1,0,0.00
2013-4-19,90.0,66.4,49.0,31.0,22.5,15.0,40,23,7,30.16,29.95,9,2,0,0.00
2013-4-20,95.0,68.8,48.0,48.0,34.3,26.0,51,31,11,29.97,29.84,7,2,0,0.00
2013-4-21,90.0,69.2,52.0,49.0,42.8,38.0,74,43,17,29.97,29.89,7,2,0,0.00
2013-4-22,84.0,62.4,51.0,53.0,48.2,45.0,86,65,28,29.98,29.85,7,2,0,0.00
2013-4-23,84.0,63.2,54.0,51.0,48.4,44.0,80,63,27,29.96,29.80,8,3,0,0.00
2013-4-24,70.0,58.4,54.0,53.0,48.8,44.0,81,71,53,29.95,29.87,8,3,0,0.00
2013-4-25,71.0,60.0,54.0,51.0,46.6,44.0,80,63,43,30.09,29.94,5,2,0,0.00
2013-4-26,85.0,63.4,48.0,49.0,45.9,42.0,86,58,27,30.14,30.05,7,2,0,0.00
2013-4-27,87.0,67.1,50.0,52.0,48.4,43.0,80,55,25,30.12,29.95,9,3,0,0.00
2013-4-28,90.0,67.2,52.0,57.0,51.5,47.0,86,61,27,29.98,29.81,8,3,0,0.00
2013-4-29,86.0,65.9,55.0,57.0,52.4,48.0,87,66,34,29.88,29.74,8,3,0,0.00
2013-4-30,79.0,61.5,54.0,52.0,50.3,48.0,83,69,38,29.87,29.77,7,2,0,0.00